Terug naar catalogus

STARLINK-33604

ActiefCommunicatieVLEO
NORAD 63070·PAYLOAD·🇺🇸 United States

Gelanceerd Feb 21, 2025 vanaf Cape Canaveral Space Force Station

Loading…

Volgende Passages (komende 24 uur)

TLE

VersSource: CelesTrak SupGP

Epoch: Sep 15, 2026, 03:42 UTC

1 63070C 25035U   26258.15465278  .00047322  00000+0  17139-2 0  2580
2 63070  43.0019 157.4872 0001167 265.9927  11.2344 15.27557038    13

Volg STARLINK-33604 in realtime met AllMySat

Download on the App Store